Location: Azul
(36.7830°S, 59.8500°W)
Time: 01:51:12
(UTC-03:00)

CAS-4A - Pass Details

Date: 27 October 2021
Orbit: 529 x 539 km, 43.0° (Epoch: 04 December)

Event Time Altitude Azimuth Distance (km) Brightness Sun altitude
Exits shadow 04:31:20 13° 239° (WSW) 1,598 ? -16.9°
Maximum altitude 04:34:32 34° 177° (S) 907 ? -16.4°
Drops below altitude 10° 04:38:17 10° 111° (ESE) 1,793 ? -15.7°
Sets 04:40:41 0° 101° (E) 2,683 ? -15.3°
